This is the latest recevied weather packets stored in our database for station/object IK6ZNK-3. If no packets are shown the sender has not sent any weather packets the latest 1 day(s).
| Time | Temp. | Humidity | Pressure | Rain* | Wind** | Luminosity | Snow |
|---|---|---|---|---|---|---|---|
| 1778097607 | 18.89° C | 57% | 1004.4 hPa | 0 mm | - | - | - |
| 1778097007 | 18.89° C | 58% | 1004 hPa | 0 mm | - | - | - |
| 1778088607 | 20.56° C | 54% | 1003.3 hPa | 0 mm | - | - | - |
| 1778088008 | 20.56° C | 54% | 1003.1 hPa | 0 mm | - | - | - |
| 1778086207 | 20.56° C | 55% | 1003.1 hPa | 0 mm | - | - | - |
| 1778085010 | 21.11° C | 56% | 1003.4 hPa | 0 mm | - | - | - |
| 1778081408 | 21.67° C | 70% | 1003.6 hPa | 0 mm | - | - | - |
| 1778080807 | 21.67° C | 70% | 1003.3 hPa | 0 mm | - | - | - |
| 1778080207 | 22.22° C | 67% | 1003.8 hPa | 0 mm | - | - | - |
| 1778077207 | 22.22° C | 65% | 1003.7 hPa | 0 mm | - | - | - |
| 1778076607 | 22.22° C | 67% | 1003.6 hPa | 0 mm | - | - | - |
| 1778073009 | 22.22° C | 58% | 1003.8 hPa | 0 mm | - | - | - |
| 1778071209 | 22.22° C | 62% | 1004.4 hPa | 0 mm | - | - | - |
| 1778070609 | 22.22° C | 63% | 1004.1 hPa | 0 mm | - | - | - |
| 1778069407 | 22.78° C | 60% | 1004.3 hPa | 0 mm | - | - | - |
| 1778067609 | 21.11° C | 65% | 1004.1 hPa | 0 mm | - | - | - |
| 1778067011 | 20.56° C | 66% | 1004.2 hPa | 0 mm | - | - | - |
| 1778061609 | 18.33° C | 76% | 1004.9 hPa | 0 mm | - | - | - |
| 1778060412 | 18.89° C | 74% | 1005.2 hPa | 0 mm | - | - | - |
| 1778059810 | 18.89° C | 74% | 1005 hPa | 0 mm | - | - | - |
| 1778058611 | 19.44° C | 72% | 1004.7 hPa | 0 mm | - | - | - |
| 1778056208 | 19.44° C | 71% | 1004.5 hPa | 0 mm | - | - | - |
| 1778055608 | 19.44° C | 70% | 1004.7 hPa | 0 mm | - | - | - |
| 1778055008 | 20° C | 69% | 1004.9 hPa | 0 mm | - | - | - |
| 1778051407 | 18.33° C | 70% | 1005 hPa | 0 mm | - | - | - |
* Rain latest hour (hover to see other rain measurements)
** Current wind speed in m/s (hover to see current wind gust speed)